NSS-11

Last updated on Mon Oct 14 2024 00:02:37 GMT+0000 (Coordinated Universal Time)

1 26554U 00059A 24287.52202116 .00000024 00000+0 00000+0 0 9992 2 26554 0.5344 88.0510 0002971 106.8480 191.6148 1.00272012 35157
UTC large
Height (km)
Speed (km/s)
/
Latitude / Longitude
Inclination (degrees)
Orbital Period (minutes)
Azimuth
Elevation
Range (km)
Doppler Factor

Next 0 passes for location: London (51.5072 / 0.1276)

Sorry there are no passes over London.